QPF
0.00 0.00 0.00 0.00 0.00 0.00 0.00 0.00 0.00 0.00 0.00 0.00 0.00 0.00 0.00 0.00 0.00 0.00 0.00 0.00 0.00 0.00 0.00 0.00 0.00 0.00 0.00 0.00 0.00 0.00 0.00 0.00 0.00 0.01 0.02 0.03 0.05 0.08 0.10 0.08 0.06 0.06 0.05 0.05 0.05 0.02 0.09 0.15 0.07 0.08 0.10 0.10 0.07 0.01
0.00 0.00 0.00 0.00 0.00 0.00 0.00 0.00 0.00 0.00 0.00 0.00 0.00 0.00 0.00 0.00 0.00 0.00 0.00 0.00 0.00 0.00 0.00 0.00 0.00 0.00 0.00 0.00 0.00 0.00 0.01 0.00 0.01 0.02 0.03 0.04 0.04 0.08 0.03 0.07 0.04 0.15 0.08 0.07 0.10 0.18 0.18 0.17 0.20 0.16 0.12 0.10 0.05 0.01
0.00 0.00 0.00 0.00 0.00 0.00 0.00 0.00 0.00 0.00 0.00 0.00 0.00 0.00 0.00 0.00 0.00 0.00 0.00 0.00 0.00 0.00 0.00 0.00 0.00 0.00 0.00 0.00 0.00 0.00 0.00 0.00 0.00 0.00 0.02 0.03 0.05 0.06 0.03 0.06 0.05 0.04 0.03 0.05 0.11 0.20 0.10 0.09 0.10 0.12 0.12 0.10 0.04 0.00
0.00 0.00 0.00 0.00 0.00 0.00 0.00 0.00 0.00 0.00 0.00 0.00 0.00 0.00 0.00 0.00 0.00 0.00 0.00 0.00 0.00 0.00 0.00 0.00 0.00 0.00 0.00 0.00 0.00 0.00 0.00 0.00 0.00 0.00 0.01 0.00 0.01 0.03 0.03 0.02 0.02 0.03 0.02 0.05 0.03 0.05 0.05 0.05 0.09 0.14 0.13 0.14 0.06 0.01
0.00 0.00 0.00 0.00 0.00 0.00 0.00 0.00 0.00 0.00 0.00 0.00 0.00 0.00 0.00 0.00 0.00 0.00 0.00 0.00 0.00 0.00 0.00 0.00 0.00 0.00 0.00 0.00 0.00 0.00 0.00 0.00 0.00 0.01 0.01 0.00 0.01 0.04 0.01 0.01 0.05 0.03 0.03 0.03 0.09 0.02 0.03 0.04 0.06 0.08 0.07 0.06 0.08 0.03
0.00 0.00 0.00 0.00 0.00 0.00 0.00 0.00 0.00 0.00 0.00 0.00 0.00 0.00 0.00 0.00 0.00 0.00 0.00 0.00 0.00 0.00 0.00 0.00 0.00 0.00 0.00 0.00 0.00 0.00 0.00 0.00 0.00 0.00 0.00 0.00 0.00 0.02 0.02 0.04 0.07 0.03 0.01 0.02 0.05 0.01 0.01 0.02 0.02 0.02 0.04 0.02 0.02 0.02
0.00 0.00 0.00 0.00 0.00 0.00 0.00 0.00 0.00 0.00 0.00 0.00 0.00 0.00 0.00 0.00 0.00 0.00 0.00 0.00 0.00 0.00 0.00 0.00 0.00 0.00 0.00 0.00 0.00 0.00 0.00 0.00 0.00 0.00 0.00 0.00 0.00 0.00 0.01 0.04 0.04 0.01 0.00 0.00 0.01 0.01 0.02 0.02 0.01 0.01 0.01 0.00 0.00 0.00
0.00 0.00 0.00 0.00 0.00 0.00 0.00 0.00 0.00 0.00 0.00 0.00 0.00 0.00 0.00 0.00 0.00 0.00 0.00 0.00 0.00 0.00 0.00 0.00 0.00 0.00 0.00 0.00 0.00 0.00 0.00 0.00 0.00 0.00 0.00 0.00 0.00 0.00 0.00 0.00 0.01 0.00 0.00 0.00 0.00 0.00 0.00 0.00 0.00 0.00 0.00 0.00 0.00 0.00
0.00 0.00 0.00 0.00 0.00 0.00 0.00 0.00 0.00 0.00 0.00 0.00 0.00 0.00 0.00 0.00 0.00 0.00 0.00 0.00 0.00 0.00 0.00 0.00 0.00 0.00 0.00 0.00 0.00 0.00 0.00 0.00 0.00 0.00 0.00 0.00 0.00 0.00 0.00 0.00 0.00 0.00 0.00 0.00 0.00 0.00 0.00 0.00 0.00 0.00 0.00 0.00 0.00 0.00
0.00 0.00 0.00 0.00 0.00 0.00 0.00 0.00 0.00 0.00 0.00 0.00 0.00 0.00 0.00 0.00 0.00 0.00 0.00 0.00 0.00 0.00 0.00 0.00 0.00 0.00 0.00 0.00 0.00 0.00 0.00 0.00 0.00 0.00 0.00 0.00 0.00 0.00 0.00 0.00 0.00 0.00 0.00 0.00 0.00 0.00 0.00 0.00 0.00 0.00 0.00 0.00 0.00 0.00
0.00 0.00 0.00 0.00 0.00 0.00 0.00 0.00 0.00 0.00 0.00 0.00 0.00 0.00 0.00 0.00 0.00 0.00 0.00 0.00 0.00 0.00 0.00 0.00 0.00 0.00 0.00 0.00 0.00 0.00 0.00 0.00 0.00 0.00 0.00 0.00 0.00 0.00 0.00 0.00 0.00 0.00 0.00 0.00 0.00 0.00 0.00 0.00 0.00 0.00 0.00 0.00 0.00 0.00
0.00 0.00 0.00 0.00 0.00 0.00 0.00 0.00 0.00 0.00 0.00 0.00 0.00 0.00 0.00 0.00 0.00 0.00 0.00 0.00 0.00 0.00 0.00 0.00 0.00 0.00 0.00 0.00 0.00 0.00 0.00 0.00 0.00 0.00 0.00 0.00 0.00 0.00 0.00 0.00 0.00 0.00 0.00 0.00 0.00 0.00 0.00 0.00 0.00 0.00 0.00 0.00 0.00 0.00
0.00 0.00 0.00 0.00 0.00 0.00 0.00 0.00 0.00 0.00 0.00 0.00 0.00 0.00 0.00 0.00 0.00 0.00 0.00 0.00 0.00 0.00 0.00 0.00 0.00 0.00 0.00 0.00 0.00 0.00 0.00 0.00 0.00 0.00 0.00 0.00 0.00 0.00 0.00 0.00 0.00 0.00 0.00 0.00 0.00 0.00 0.00 0.00 0.00 0.00 0.00 0.00 0.00 0.00
0.00 0.00 0.00 0.00 0.00 0.00 0.01 0.00 0.00 0.00 0.00 0.00 0.00 0.00 0.00 0.00 0.00 0.00 0.00 0.00 0.00 0.00 0.00 0.00 0.00 0.00 0.00 0.00 0.00 0.00 0.00 0.00 0.00 0.00 0.00 0.00 0.00 0.00 0.00 0.00 0.00 0.00 0.00 0.00 0.00 0.00 0.00 0.00 0.00 0.00 0.00 0.00 0.00 0.00
0.00 0.00 0.00 0.00 0.00 0.01 0.01 0.00 0.00 0.00 0.00 0.00 0.00 0.00 0.00 0.00 0.00 0.00 0.00 0.00 0.00 0.00 0.00 0.00 0.00 0.00 0.00 0.00 0.00 0.00 0.00 0.00 0.00 0.00 0.00 0.00 0.00 0.00 0.00 0.00 0.00 0.00 0.00 0.00 0.00 0.00 0.00 0.00 0.00 0.00 0.00 0.00 0.00 0.00
0.00 0.02 0.01 0.00 0.00 0.02 0.04 0.01 0.00 0.00 0.00 0.00 0.00 0.00 0.00 0.00 0.00 0.00 0.00 0.00 0.00 0.00 0.00 0.00 0.00 0.00 0.00 0.00 0.00 0.00 0.00 0.00 0.00 0.00 0.00 0.00 0.00 0.00 0.00 0.00 0.00 0.00 0.00 0.00 0.00 0.00 0.00 0.00 0.00 0.00 0.00 0.00 0.00 0.00
0.02 0.02 0.00 0.00 0.01 0.08 0.09 0.03 0.00 0.00 0.00 0.00 0.00 0.00 0.00 0.00 0.00 0.00 0.00 0.00 0.00 0.00 0.00 0.00 0.00 0.00 0.00 0.00 0.00 0.00 0.00 0.00 0.00 0.00 0.00 0.00 0.00 0.00 0.00 0.00 0.00 0.00 0.00 0.00 0.00 0.00 0.00 0.00 0.00 0.00 0.00 0.00 0.00 0.00
0.04 0.01 0.00 0.01 0.12 0.20 0.13 0.05 0.01 0.00 0.00 0.00 0.00 0.00 0.00 0.00 0.00 0.00 0.00 0.00 0.00 0.00 0.00 0.00 0.00 0.00 0.00 0.00 0.00 0.00 0.00 0.00 0.00 0.00 0.00 0.00 0.00 0.00 0.00 0.00 0.00 0.00 0.00 0.00 0.00 0.00 0.00 0.00 0.00 0.00 0.00 0.00 0.00 0.00
0.03 0.00 0.01 0.08 0.17 0.09 0.07 0.06 0.01 0.00 0.00 0.00 0.00 0.00 0.00 0.00 0.00 0.00 0.00 0.00 0.00 0.00 0.00 0.00 0.00 0.00 0.00 0.00 0.00 0.00 0.00 0.00 0.00 0.00 0.00 0.00 0.00 0.00 0.00 0.00 0.00 0.00 0.00 0.00 0.00 0.00 0.00 0.00 0.00 0.00 0.00 0.00 0.00 0.00
0.04 0.03 0.08 0.07 0.03 0.05 0.04 0.04 0.00 0.00 0.00 0.00 0.00 0.00 0.00 0.00 0.00 0.00 0.00 0.00 0.00 0.00 0.00 0.00 0.00 0.00 0.00 0.00 0.00 0.00 0.00 0.00 0.00 0.00 0.00 0.00 0.00 0.00 0.00 0.00 0.00 0.00 0.00 0.00 0.00 0.00 0.00 0.00 0.00 0.00 0.00 0.00 0.00 0.00
0.20 0.19 0.15 0.14 0.22 0.14 0.05 0.02 0.00 0.00 0.00 0.00 0.00 0.00 0.00 0.00 0.00 0.00 0.00 0.00 0.00 0.00 0.00 0.00 0.00 0.00 0.00 0.00 0.00 0.00 0.00 0.00 0.00 0.00 0.00 0.00 0.00 0.00 0.00 0.00 0.00 0.00 0.00 0.00 0.00 0.00 0.00 0.00 0.00 0.00 0.00 0.00 0.00 0.00
0.30 0.28 0.30 0.32 0.20 0.17 0.07 0.01 0.00 0.00 0.00 0.00 0.00 0.00 0.00 0.00 0.00 0.00 0.00 0.00 0.00 0.00 0.00 0.00 0.00 0.00 0.00 0.00 0.00 0.00 0.00 0.00 0.00 0.00 0.00 0.00 0.00 0.00 0.00 0.00 0.00 0.00 0.00 0.00 0.00 0.00 0.01 0.00 0.00 0.00 0.00 0.00 0.00 0.00
0.18 0.15 0.13 0.16 0.12 0.06 0.04 0.01 0.00 0.00 0.00 0.00 0.00 0.00 0.00 0.00 0.00 0.00 0.00 0.00 0.00 0.00 0.00 0.00 0.00 0.00 0.00 0.00 0.00 0.00 0.00 0.00 0.00 0.00 0.00 0.00 0.00 0.00 0.00 0.00 0.00 0.00 0.00 0.00 0.00 0.00 0.01 0.00 0.00 0.00 0.00 0.00 0.00 0.00
0.17 0.16 0.14 0.11 0.06 0.05 0.05 0.05 0.03 0.01 0.00 0.00 0.00 0.00 0.00 0.00 0.00 0.00 0.00 0.00 0.00 0.00 0.00 0.00 0.00 0.00 0.00 0.00 0.00 0.00 0.00 0.00 0.00 0.00 0.00 0.00 0.00 0.00 0.00 0.00 0.00 0.00 0.00 0.00 0.00 0.00 0.00 0.00 0.00 0.00 0.00 0.00 0.00 0.00
0.25 0.24 0.17 0.10 0.05 0.03 0.02 0.03 0.01 0.01 0.00 0.00 0.00 0.00 0.00 0.00 0.00 0.00 0.00 0.00 0.00 0.00 0.00 0.00 0.00 0.00 0.00 0.00 0.00 0.00 0.00 0.00 0.00 0.00 0.00 0.00 0.00 0.00 0.00 0.00 0.00 0.00 0.00 0.00 0.00 0.00 0.00 0.00 0.00 0.00 0.00 0.00 0.00 0.00
0.22 0.20 0.09 0.03 0.01 0.00 0.00 0.00 0.00 0.00 0.00 0.00 0.00 0.00 0.00 0.00 0.00 0.00 0.00 0.00 0.00 0.00 0.00 0.00 0.00 0.00 0.00 0.00 0.00 0.00 0.00 0.00 0.00 0.00 0.00 0.00 0.00 0.00 0.00 0.00 0.00 0.00 0.00 0.00 0.00 0.00 0.00 0.00 0.00 0.00 0.00 0.00 0.00 0.00
0.22 0.16 0.02 0.00 0.00 0.00 0.00 0.00 0.00 0.00 0.00 0.00 0.00 0.00 0.00 0.00 0.00 0.00 0.00 0.00 0.00 0.00 0.00 0.00 0.00 0.00 0.00 0.00 0.00 0.00 0.00 0.00 0.00 0.00 0.00 0.00 0.00 0.00 0.00 0.00 0.00 0.00 0.00 0.00 0.00 0.00 0.00 0.00 0.00 0.00 0.00 0.00 0.00 0.00
0.13 0.02 0.00 0.00 0.00 0.00 0.00 0.00 0.00 0.00 0.00 0.00 0.00 0.00 0.00 0.00 0.00 0.00 0.00 0.00 0.00 0.00 0.00 0.00 0.00 0.00 0.00 0.00 0.00 0.00 0.00 0.00 0.00 0.00 0.00 0.00 0.00 0.00 0.00 0.00 0.00 0.00 0.00 0.00 0.00 0.00 0.00 0.00 0.00 0.00 0.00 0.00 0.00 0.00
0.06 0.00 0.00 0.00 0.00 0.00 0.00 0.00 0.00 0.00 0.00 0.00 0.00 0.00 0.00 0.00 0.00 0.00 0.00 0.00 0.00 0.00 0.00 0.00 0.00 0.00 0.00 0.00 0.00 0.00 0.00 0.00 0.00 0.00 0.00 0.00 0.00 0.00 0.00 0.00 0.00 0.00 0.00 0.00 0.00 0.00 0.00 0.00 0.00 0.00 0.00 0.00 0.00 0.00
0.02 0.00 0.00 0.00 0.00 0.00 0.00 0.00 0.00 0.00 0.00 0.00 0.00 0.00 0.00 0.00 0.00 0.00 0.00 0.00 0.00 0.00 0.00 0.00 0.00 0.00 0.00 0.00 0.00 0.00 0.00 0.00 0.00 0.00 0.00 0.00 0.00 0.00 0.00 0.00 0.00 0.00 0.00 0.00 0.00 0.00 0.00 0.00 0.00 0.00 0.00 0.00 0.00 0.00
0.01 0.00 0.00 0.00 0.00 0.00 0.00 0.00 0.00 0.00 0.00 0.00 0.00 0.00 0.00 0.00 0.00 0.00 0.00 0.00 0.00 0.00 0.00 0.00 0.00 0.00 0.00 0.00 0.00 0.00 0.00 0.00 0.00 0.00 0.00 0.00 0.00 0.00 0.00 0.00 0.00 0.00 0.00 0.00 0.00 0.00 0.00 0.00 0.00 0.00 0.00 0.00 0.00 0.00
0.03 0.01 0.00 0.00 0.00 0.00 0.00 0.00 0.00 0.00 0.00 0.00 0.00 0.00 0.00 0.00 0.00 0.00 0.00 0.00 0.00 0.00 0.00 0.00 0.00 0.00 0.00 0.00 0.00 0.00 0.00 0.00 0.00 0.00 0.00 0.00 0.00 0.00 0.00 0.00 0.00 0.00 0.00 0.00 0.00 0.00 0.00 0.00 0.00 0.00 0.00 0.00 0.00 0.00
0.07 0.06 0.06 0.06 0.03 0.00 0.00 0.00 0.00 0.00 0.00 0.00 0.00 0.00 0.00 0.00 0.00 0.00 0.00 0.00 0.00 0.00 0.00 0.00 0.00 0.00 0.00 0.00 0.00 0.00 0.00 0.00 0.00 0.00 0.00 0.00 0.00 0.00 0.00 0.00 0.00 0.00 0.00 0.00 0.00 0.00 0.00 0.00 0.00 0.00 0.00 0.00 0.00 0.00
MSLP
1028.33 1028.80 1029.09 1029.30 1029.57 1029.80 1029.94 1030.07 1030.08 1030.17 1029.92 1029.63 1029.59 1029.24 1028.77 1028.41 1027.95 1027.03 1026.71 1027.03 1026.21 1025.25 1024.63 1024.38 1024.19 1023.76 1023.00 1022.37 1021.45 1020.53 1018.38 1018.76 1018.42 1017.36 1017.36 1017.64 1017.84 1017.98 1018.06 1017.98 1017.49 1016.70 1016.41 1016.52 1016.97 1017.54 1019.62 1020.00 1017.95 1018.51 1020.47 1019.59 1018.58 1017.42
1028.23 1028.73 1029.03 1029.35 1029.61 1029.87 1030.05 1030.20 1030.36 1030.35 1030.14 1030.11 1029.97 1029.55 1029.25 1028.86 1028.43 1027.84 1026.65 1026.92 1027.17 1026.30 1024.94 1024.97 1024.77 1024.86 1024.57 1024.34 1023.76 1021.55 1021.72 1021.38 1021.48 1020.81 1019.95 1019.27 1019.26 1019.35 1019.28 1018.60 1019.26 1018.73 1019.53 1019.40 1020.23 1022.12 1022.70 1022.29 1021.74 1021.63 1021.07 1020.29 1019.31 1018.37
1028.14 1028.57 1029.03 1029.30 1029.58 1029.92 1030.04 1030.29 1030.52 1030.39 1030.36 1030.43 1030.15 1029.83 1029.58 1029.27 1028.90 1028.44 1027.29 1027.07 1026.65 1026.09 1024.17 1024.26 1024.53 1024.55 1024.51 1024.28 1024.50 1023.50 1022.57 1022.80 1022.11 1022.55 1021.76 1020.81 1020.56 1020.79 1020.23 1020.52 1020.41 1020.70 1020.90 1021.20 1021.44 1022.69 1022.85 1022.88 1022.58 1022.20 1021.68 1021.03 1020.30 1019.63
1028.00 1028.52 1028.98 1029.29 1029.54 1029.88 1030.02 1030.38 1030.45 1030.45 1030.57 1030.56 1030.28 1030.07 1029.86 1029.56 1029.25 1028.85 1027.80 1027.59 1027.17 1026.60 1025.61 1024.73 1024.62 1024.58 1024.23 1024.02 1023.63 1023.81 1023.15 1022.12 1022.15 1021.54 1021.28 1021.52 1021.66 1021.85 1021.77 1022.02 1021.72 1021.74 1021.49 1021.90 1022.57 1022.99 1023.01 1023.39 1023.28 1023.01 1022.42 1021.82 1021.11 1020.59
1027.84 1028.40 1028.82 1029.20 1029.45 1029.69 1030.06 1030.31 1030.35 1030.51 1030.68 1030.55 1030.35 1030.21 1030.00 1029.69 1029.41 1028.69 1028.17 1028.01 1027.99 1027.86 1026.56 1024.67 1024.39 1024.41 1024.15 1023.80 1023.41 1023.16 1022.56 1021.84 1022.23 1021.97 1021.78 1021.90 1022.34 1022.49 1022.41 1022.45 1022.87 1023.18 1022.85 1022.67 1023.55 1024.06 1023.85 1024.09 1023.88 1023.51 1023.00 1022.47 1022.11 1021.36
1027.62 1028.21 1028.70 1029.04 1029.40 1029.56 1030.04 1030.19 1030.35 1030.61 1030.68 1030.63 1030.48 1030.39 1030.09 1029.75 1029.44 1028.64 1028.65 1028.02 1028.58 1028.06 1027.46 1025.10 1024.61 1024.53 1024.32 1023.77 1023.46 1023.14 1022.97 1022.17 1022.30 1022.33 1022.24 1022.57 1022.54 1022.17 1022.59 1023.25 1024.20 1024.09 1023.69 1023.91 1023.94 1024.09 1024.16 1024.36 1024.03 1023.71 1023.40 1023.10 1022.48 1022.00
1027.44 1028.02 1028.45 1028.85 1029.22 1029.56 1029.95 1030.13 1030.34 1030.66 1030.75 1030.74 1030.56 1030.45 1030.26 1029.76 1028.71 1029.32 1029.53 1029.67 1029.51 1028.30 1027.72 1025.66 1024.34 1024.46 1024.45 1023.65 1023.79 1023.37 1023.07 1022.97 1022.79 1022.89 1022.37 1022.36 1022.86 1023.42 1023.46 1023.87 1024.62 1024.39 1024.33 1024.34 1024.25 1024.08 1023.97 1023.79 1023.70 1023.43 1023.17 1022.88 1022.42 1022.01
1027.21 1027.84 1028.28 1028.68 1029.11 1029.47 1029.85 1030.14 1030.41 1030.67 1030.77 1030.76 1030.68 1030.56 1030.41 1030.10 1029.97 1029.77 1029.24 1029.87 1029.59 1028.40 1027.79 1026.27 1025.01 1024.51 1024.80 1024.06 1024.04 1024.09 1023.36 1023.38 1023.08 1022.97 1022.66 1022.58 1023.07 1023.57 1023.84 1024.35 1024.28 1024.03 1023.93 1023.79 1023.64 1023.55 1023.74 1023.69 1023.36 1023.23 1023.09 1022.88 1022.39 1021.99
1026.95 1027.58 1028.11 1028.56 1028.99 1029.40 1029.75 1030.11 1030.38 1030.68 1030.88 1030.78 1030.76 1030.65 1030.08 1029.96 1030.23 1029.38 1030.19 1029.93 1028.87 1028.64 1027.28 1025.80 1024.85 1024.89 1024.98 1024.33 1024.08 1024.18 1024.15 1023.83 1023.76 1023.67 1023.37 1023.25 1023.56 1024.13 1024.49 1024.38 1024.38 1024.31 1024.07 1023.81 1023.74 1023.50 1023.20 1023.10 1023.00 1022.75 1022.80 1022.79 1022.48 1022.39
1026.59 1027.28 1027.88 1028.37 1028.78 1029.32 1029.65 1030.06 1030.39 1030.71 1030.86 1030.79 1030.39 1030.68 1030.41 1030.44 1030.60 1030.19 1029.85 1029.32 1028.80 1028.34 1027.25 1025.95 1025.27 1024.95 1025.42 1024.69 1024.36 1024.31 1024.29 1024.13 1023.74 1023.99 1023.84 1023.49 1024.22 1024.52 1024.40 1024.37 1024.28 1024.22 1024.04 1023.93 1023.83 1023.76 1023.47 1023.41 1023.28 1023.16 1023.07 1023.06 1022.72 1022.58
1026.23 1026.92 1027.61 1028.12 1028.60 1029.17 1029.53 1029.95 1030.37 1030.81 1030.96 1030.61 1030.85 1030.41 1029.72 1030.46 1029.74 1029.50 1029.33 1028.83 1028.12 1027.43 1026.38 1025.63 1025.67 1025.09 1025.72 1025.62 1025.32 1025.40 1024.87 1024.19 1023.67 1023.84 1023.62 1023.42 1023.20 1024.18 1024.28 1024.15 1024.14 1024.13 1024.06 1023.86 1023.77 1023.67 1023.67 1023.68 1023.52 1023.39 1023.10 1023.02 1022.98 1022.97
1025.84 1026.58 1027.31 1027.90 1028.42 1028.94 1029.44 1030.03 1030.50 1030.36 1030.50 1030.61 1030.23 1030.11 1030.05 1029.82 1029.56 1029.21 1028.19 1027.59 1026.64 1025.34 1025.34 1025.13 1025.32 1025.39 1025.53 1026.00 1025.80 1025.42 1024.97 1024.59 1023.80 1024.07 1023.75 1022.94 1023.02 1023.52 1023.71 1023.82 1023.86 1023.98 1023.96 1023.88 1023.74 1023.61 1023.61 1023.51 1023.25 1023.10 1022.94 1022.99 1023.12 1023.08
1025.51 1026.27 1026.97 1027.62 1028.13 1028.68 1029.25 1029.84 1030.41 1030.33 1030.49 1030.31 1030.46 1029.92 1029.57 1029.51 1028.81 1027.53 1026.41 1025.45 1024.73 1024.66 1024.66 1025.01 1025.46 1025.58 1025.89 1025.97 1025.96 1025.72 1025.31 1024.59 1024.40 1024.08 1022.97 1022.39 1023.02 1023.21 1023.31 1023.58 1023.71 1023.87 1023.92 1023.84 1023.69 1023.59 1023.55 1023.35 1023.22 1023.20 1023.23 1023.01 1023.27 1023.06
1025.09 1025.92 1026.69 1027.34 1027.81 1028.46 1029.13 1029.87 1030.35 1030.49 1030.11 1030.00 1029.89 1029.20 1028.43 1027.66 1026.51 1024.91 1024.07 1023.42 1023.63 1023.71 1024.17 1024.51 1025.35 1025.97 1026.00 1026.08 1026.07 1025.78 1025.22 1024.98 1024.10 1023.08 1022.25 1022.00 1022.45 1022.94 1023.30 1023.65 1023.77 1023.70 1023.74 1023.71 1023.59 1023.42 1023.30 1023.21 1023.38 1023.52 1023.70 1023.59 1024.03 1023.77
1024.68 1025.64 1026.46 1027.07 1027.66 1028.25 1028.89 1029.76 1030.29 1029.99 1029.65 1029.29 1028.71 1027.66 1026.42 1025.49 1025.01 1024.43 1024.10 1024.08 1024.06 1023.94 1024.41 1024.81 1025.39 1026.02 1026.00 1026.11 1025.95 1025.62 1025.26 1024.23 1022.93 1021.98 1021.62 1021.70 1022.36 1022.87 1023.18 1023.41 1023.52 1023.50 1023.51 1023.54 1023.45 1023.34 1023.28 1023.25 1023.06 1022.97 1023.02 1023.55 1023.77 1024.51
1024.48 1025.69 1026.09 1026.64 1027.37 1028.02 1028.91 1029.77 1030.24 1029.82 1029.21 1028.69 1027.74 1026.51 1025.69 1025.15 1024.77 1024.70 1024.40 1023.82 1024.22 1024.32 1024.72 1024.88 1025.21 1026.01 1025.95 1025.49 1025.22 1024.79 1023.75 1022.50 1021.62 1021.46 1021.68 1021.89 1022.29 1022.70 1022.95 1023.17 1023.31 1023.39 1023.54 1023.52 1023.34 1023.17 1023.08 1022.95 1022.88 1022.67 1022.71 1023.47 1024.68 1024.94
1024.19 1024.34 1025.05 1026.12 1026.97 1027.97 1028.89 1029.72 1029.76 1029.43 1028.53 1027.46 1026.32 1025.91 1025.35 1024.77 1024.40 1024.36 1024.08 1023.64 1024.30 1024.55 1024.51 1024.77 1025.15 1025.30 1025.22 1024.78 1023.79 1022.87 1022.11 1021.20 1021.07 1021.42 1021.64 1021.85 1022.09 1022.25 1022.51 1022.85 1023.05 1023.13 1023.24 1023.28 1023.13 1022.99 1022.91 1022.90 1022.70 1022.52 1022.53 1022.82 1023.78 1024.06
1023.16 1023.69 1024.60 1025.66 1026.82 1028.14 1029.47 1029.13 1028.68 1028.22 1027.28 1026.20 1025.59 1025.20 1025.08 1024.47 1024.14 1023.90 1023.63 1023.56 1024.08 1024.13 1024.12 1024.27 1024.18 1024.22 1024.06 1022.92 1021.73 1021.33 1021.24 1021.18 1021.35 1021.48 1021.51 1021.65 1022.00 1022.25 1022.50 1022.63 1022.76 1022.83 1022.87 1022.91 1022.88 1022.81 1022.69 1022.45 1022.21 1022.07 1022.36 1022.93 1023.46 1023.71
1022.57 1023.23 1024.32 1025.25 1026.52 1027.72 1028.40 1028.48 1027.85 1026.61 1025.65 1025.20 1024.89 1024.62 1024.35 1024.08 1024.02 1023.77 1023.59 1023.67 1023.98 1023.87 1024.03 1024.21 1023.86 1022.57 1021.97 1021.47 1021.08 1020.80 1020.65 1020.79 1021.03 1021.39 1021.50 1021.60 1021.76 1022.00 1022.20 1022.34 1022.48 1022.55 1022.59 1022.58 1022.67 1022.64 1022.52 1022.39 1022.64 1022.51 1022.76 1023.22 1023.51 1023.76
1022.26 1023.04 1023.98 1024.95 1025.86 1026.76 1026.91 1026.89 1026.73 1025.41 1024.72 1024.55 1024.25 1023.85 1023.74 1023.65 1023.44 1023.45 1023.55 1023.53 1023.78 1024.13 1023.84 1022.95 1021.88 1021.40 1021.04 1020.78 1020.55 1020.42 1020.35 1020.40 1020.83 1021.13 1021.21 1021.30 1021.38 1021.42 1021.55 1021.81 1021.93 1022.00 1022.07 1022.31 1022.42 1023.07 1023.02 1023.10 1023.26 1023.48 1023.82 1023.99 1024.16 1024.34
1021.94 1022.46 1023.95 1024.71 1025.40 1025.85 1025.21 1025.01 1024.37 1023.67 1023.34 1023.70 1023.47 1023.48 1023.17 1023.32 1023.21 1023.07 1023.09 1023.17 1023.26 1022.83 1022.21 1021.32 1021.03 1020.93 1020.83 1020.67 1020.57 1020.52 1020.60 1020.65 1020.49 1020.58 1020.74 1020.77 1020.86 1020.75 1020.75 1020.96 1021.36 1021.47 1021.73 1021.96 1022.29 1022.76 1023.52 1023.23 1023.60 1024.00 1024.32 1024.42 1024.80 1025.00
1020.62 1021.86 1023.41 1024.64 1024.60 1024.73 1024.23 1023.39 1022.42 1022.74 1022.88 1022.68 1022.73 1022.83 1022.60 1022.98 1022.97 1022.70 1022.74 1022.50 1021.95 1021.03 1020.86 1020.66 1020.04 1019.97 1020.00 1019.92 1019.91 1020.09 1020.17 1020.35 1020.47 1020.52 1020.83 1020.80 1020.70 1020.69 1020.70 1020.80 1021.03 1021.22 1021.40 1021.77 1022.30 1022.78 1023.17 1023.34 1023.63 1023.96 1024.40 1025.04 1025.30 1025.13
1020.42 1021.68 1022.55 1023.26 1023.52 1023.16 1022.20 1021.91 1021.89 1021.93 1021.77 1021.80 1022.10 1022.00 1021.93 1022.13 1022.03 1021.97 1021.64 1020.86 1020.11 1020.03 1019.89 1019.44 1019.06 1019.11 1019.02 1018.97 1019.08 1019.09 1019.23 1019.37 1019.55 1019.64 1019.80 1019.92 1019.89 1020.00 1020.10 1020.28 1020.69 1020.89 1021.08 1021.43 1021.88 1022.39 1023.05 1023.49 1023.95 1024.22 1024.67 1025.20 1025.34 1025.74
1019.71 1020.62 1020.84 1021.06 1020.95 1020.62 1020.84 1020.41 1020.34 1020.31 1020.37 1020.37 1020.77 1020.86 1020.64 1020.96 1021.26 1020.95 1019.37 1018.31 1018.09 1018.27 1018.12 1017.93 1018.21 1017.95 1017.92 1017.95 1017.87 1017.95 1018.26 1018.53 1018.62 1018.77 1018.99 1019.24 1019.40 1019.38 1019.49 1019.64 1019.90 1020.19 1020.69 1021.20 1021.54 1022.31 1023.10 1023.69 1024.15 1024.63 1025.16 1025.54 1025.81 1025.95
1018.55 1019.30 1019.14 1018.51 1018.36 1018.72 1018.72 1018.80 1018.77 1018.97 1019.04 1019.30 1019.64 1019.58 1019.68 1020.35 1020.31 1019.25 1017.30 1016.32 1016.54 1016.53 1016.50 1016.77 1017.04 1017.01 1016.90 1016.80 1016.92 1017.06 1017.44 1017.59 1017.69 1017.82 1018.16 1018.66 1018.85 1019.02 1018.93 1019.05 1019.31 1019.55 1020.13 1020.78 1021.41 1022.23 1023.00 1023.64 1024.28 1024.77 1025.20 1025.50 1025.70 1025.98
1015.71 1015.86 1015.62 1014.85 1015.45 1015.92 1015.96 1016.56 1016.95 1017.33 1017.99 1018.37 1018.11 1018.32 1018.95 1019.39 1018.92 1017.38 1015.30 1014.70 1014.71 1015.12 1015.59 1015.76 1015.75 1015.86 1015.90 1016.07 1016.25 1016.36 1016.48 1016.84 1017.14 1017.10 1017.19 1017.52 1018.05 1018.26 1018.46 1018.52 1018.91 1019.36 1019.81 1020.24 1021.05 1022.11 1022.91 1023.53 1024.13 1024.56 1024.88 1025.25 1025.64 1025.93
1012.83 1012.79 1012.59 1012.37 1012.48 1013.14 1013.99 1014.57 1015.42 1015.96 1016.28 1016.43 1016.71 1017.29 1017.78 1017.70 1016.52 1014.64 1013.77 1013.58 1013.86 1013.93 1014.18 1014.64 1014.90 1014.95 1015.02 1015.33 1015.60 1015.88 1016.11 1016.11 1016.34 1016.71 1016.96 1017.03 1017.33 1017.64 1017.66 1018.03 1018.27 1018.72 1019.43 1020.05 1020.61 1021.79 1022.60 1023.17 1023.72 1024.21 1024.57 1024.97 1025.27 1025.72
1010.41 1010.27 1010.06 1010.51 1011.19 1011.84 1012.10 1012.73 1013.28 1013.62 1013.70 1013.83 1014.75 1015.19 1014.87 1014.21 1013.03 1013.23 1012.53 1012.10 1012.52 1013.13 1013.42 1013.74 1014.09 1014.47 1014.77 1014.97 1015.18 1015.59 1016.01 1016.43 1017.13 1017.35 1017.50 1017.30 1017.21 1017.39 1017.41 1017.66 1018.15 1018.65 1019.15 1019.81 1020.73 1021.53 1022.23 1022.72 1023.17 1023.64 1024.18 1024.59 1024.96 1025.47
1009.02 1008.36 1009.46 1009.66 1010.32 1010.76 1010.69 1010.47 1010.25 1010.59 1011.19 1011.61 1012.08 1012.44 1011.92 1011.90 1011.96 1011.91 1012.09 1012.33 1012.62 1012.94 1013.43 1013.89 1014.38 1014.60 1014.95 1015.26 1015.42 1015.64 1015.97 1016.38 1016.90 1017.22 1017.28 1017.29 1017.44 1017.31 1017.23 1017.68 1018.27 1018.75 1019.26 1020.01 1020.72 1021.31 1021.81 1022.31 1022.74 1023.17 1023.69 1024.23 1024.61 1025.21
1007.57 1007.56 1007.96 1008.54 1008.86 1008.50 1007.95 1008.45 1009.07 1009.69 1009.99 1010.09 1010.71 1011.11 1011.04 1011.06 1011.38 1011.45 1011.81 1012.17 1012.53 1012.79 1013.01 1013.48 1013.97 1014.49 1014.71 1015.02 1015.32 1015.72 1015.83 1015.93 1015.93 1016.04 1016.12 1016.18 1016.00 1016.29 1016.95 1017.43 1017.97 1018.65 1019.30 1019.78 1020.45 1021.18 1021.84 1022.31 1022.77 1023.17 1023.57 1024.03 1024.55 1024.87
1006.35 1007.08 1007.29 1007.63 1007.85 1007.88 1008.21 1008.70 1009.21 1009.48 1009.63 1009.79 1010.00 1010.27 1010.20 1010.86 1011.00 1010.86 1011.05 1011.22 1011.72 1012.46 1012.93 1013.19 1013.42 1013.72 1014.03 1014.18 1014.45 1014.79 1015.14 1015.13 1015.12 1015.21 1015.30 1015.44 1015.66 1015.99 1016.41 1016.88 1017.36 1017.94 1018.67 1019.31 1019.92 1020.67 1021.31 1021.85 1022.22 1022.62 1022.97 1023.37 1023.83 1024.16
1006.22 1006.32 1006.48 1006.73 1007.44 1008.50 1008.66 1008.81 1009.14 1009.26 1009.59 1009.61 1009.48 1010.04 1010.44 1010.61 1010.18 1009.71 1009.63 1010.73 1011.35 1011.74 1011.62 1011.81 1012.11 1011.95 1011.77 1012.02 1012.40 1012.60 1012.51 1012.78 1013.47 1013.82 1014.21 1014.65 1015.01 1015.41 1015.89 1016.35 1016.94 1017.39 1017.90 1018.57 1019.25 1019.88 1020.50 1021.02 1021.44 1021.85 1022.12 1022.51 1022.91 1023.34
1006.88 1006.75 1006.58 1007.07 1007.64 1008.08 1008.45 1008.60 1008.59 1008.66 1008.81 1008.72 1008.59 1008.68 1008.96 1008.98 1008.50 1008.09 1008.15 1008.52 1009.05 1009.36 1009.75 1009.94 1009.79 1009.64 1009.91 1010.28 1010.81 1011.27 1011.57 1011.76 1011.92 1012.19 1012.58 1013.19 1013.77 1014.34 1014.92 1015.48 1016.10 1016.65 1017.16 1017.67 1018.34 1018.97 1019.60 1020.10 1020.52 1020.93 1021.38 1021.68 1022.05 1022.51
Thickness
5428 5429 5431 5430 5430 5429 5428 5426 5424 5423 5423 5424 5423 5423 5422 5420 5417 5417 5411 5401 5400 5397 5393 5381 5368 5354 5354 5358 5359 5363 5389 5376 5375 5389 5389 5386 5384 5381 5384 5379 5387 5397 5412 5415 5422 5420 5400 5389 5427 5432 5408 5416 5433 5450
5425 5426 5427 5426 5426 5424 5423 5420 5419 5419 5419 5419 5418 5418 5416 5414 5412 5411 5412 5401 5392 5389 5394 5381 5369 5353 5346 5346 5344 5370 5359 5358 5352 5361 5373 5383 5379 5382 5382 5386 5383 5387 5380 5388 5379 5369 5365 5373 5385 5390 5402 5414 5430 5443
5421 5423 5423 5423 5422 5419 5419 5416 5415 5415 5415 5414 5414 5413 5412 5410 5407 5405 5407 5401 5398 5393 5402 5392 5375 5363 5352 5352 5349 5356 5365 5355 5360 5354 5357 5373 5369 5378 5376 5370 5379 5373 5373 5372 5378 5362 5366 5372 5379 5388 5397 5407 5419 5430
5417 5419 5419 5419 5419 5416 5414 5413 5412 5412 5411 5410 5410 5409 5407 5406 5404 5402 5402 5398 5394 5392 5387 5393 5382 5369 5361 5359 5362 5359 5363 5371 5370 5376 5376 5372 5371 5373 5364 5372 5374 5375 5382 5376 5372 5368 5372 5367 5373 5379 5390 5397 5407 5418
5414 5416 5415 5416 5415 5413 5411 5410 5409 5409 5408 5407 5406 5406 5404 5403 5402 5402 5399 5395 5389 5383 5386 5398 5391 5379 5370 5366 5368 5371 5376 5382 5375 5373 5375 5372 5370 5368 5376 5375 5358 5363 5362 5370 5359 5359 5364 5362 5367 5373 5382 5389 5395 5407
5412 5413 5412 5412 5411 5411 5408 5406 5406 5406 5405 5404 5403 5402 5402 5401 5400 5400 5389 5396 5386 5383 5378 5396 5396 5384 5376 5373 5372 5374 5376 5384 5382 5376 5378 5376 5375 5381 5372 5359 5357 5360 5365 5362 5361 5364 5362 5360 5367 5372 5375 5382 5391 5398
5410 5409 5410 5409 5407 5407 5404 5404 5404 5403 5402 5400 5401 5400 5399 5399 5401 5396 5397 5387 5382 5382 5380 5397 5402 5392 5381 5382 5374 5376 5378 5378 5379 5375 5381 5382 5376 5369 5367 5355 5355 5360 5360 5360 5361 5363 5362 5367 5367 5374 5379 5384 5391 5398
5407 5406 5406 5405 5404 5403 5401 5400 5400 5400 5399 5397 5397 5396 5396 5395 5393 5394 5390 5383 5382 5383 5382 5390 5398 5395 5384 5384 5375 5373 5377 5376 5378 5377 5383 5381 5378 5371 5360 5362 5363 5364 5366 5368 5368 5368 5365 5367 5372 5373 5376 5380 5387 5392
5405 5403 5402 5402 5401 5400 5398 5398 5397 5396 5395 5395 5394 5393 5394 5394 5387 5395 5385 5383 5384 5384 5390 5401 5401 5388 5388 5389 5386 5380 5375 5369 5375 5369 5372 5376 5368 5356 5359 5361 5360 5359 5361 5363 5366 5369 5373 5373 5374 5378 5377 5376 5380 5383
5402 5401 5399 5399 5398 5396 5395 5395 5393 5392 5391 5392 5392 5386 5386 5387 5386 5386 5387 5382 5379 5380 5389 5398 5402 5396 5389 5390 5388 5385 5380 5373 5371 5372 5374 5373 5359 5361 5362 5361 5361 5359 5360 5361 5359 5358 5364 5364 5367 5370 5371 5372 5376 5378
5399 5398 5396 5395 5395 5392 5391 5390 5389 5388 5387 5389 5384 5388 5393 5386 5391 5388 5384 5387 5391 5389 5399 5401 5394 5399 5389 5381 5380 5377 5375 5383 5379 5379 5377 5374 5377 5362 5362 5362 5360 5359 5358 5359 5359 5360 5360 5359 5360 5361 5365 5368 5369 5369
5396 5395 5393 5392 5391 5389 5387 5385 5383 5385 5383 5383 5388 5387 5386 5387 5386 5384 5395 5397 5402 5411 5406 5404 5398 5396 5392 5383 5379 5382 5381 5383 5381 5382 5375 5378 5381 5374 5369 5365 5362 5359 5357 5356 5356 5355 5353 5353 5357 5359 5362 5360 5359 5363
5392 5391 5389 5389 5387 5385 5383 5381 5378 5380 5381 5381 5381 5383 5387 5384 5382 5392 5392 5410 5413 5412 5409 5402 5393 5393 5388 5385 5380 5379 5374 5380 5386 5371 5382 5391 5380 5378 5374 5368 5364 5360 5357 5355 5354 5352 5350 5349 5348 5347 5348 5353 5352 5356
5389 5387 5384 5384 5383 5381 5378 5374 5373 5373 5378 5379 5378 5382 5394 5392 5404 5425 5429 5432 5426 5419 5412 5406 5393 5385 5386 5381 5379 5373 5383 5380 5375 5379 5387 5394 5387 5378 5372 5366 5362 5360 5357 5355 5353 5352 5351 5349 5343 5338 5333 5335 5329 5337
5384 5381 5378 5378 5377 5376 5374 5369 5367 5370 5375 5379 5387 5388 5408 5420 5421 5423 5420 5415 5413 5414 5406 5398 5391 5384 5382 5376 5379 5378 5370 5371 5390 5395 5401 5398 5386 5378 5372 5366 5363 5360 5358 5355 5353 5351 5348 5345 5345 5343 5339 5332 5328 5319
5377 5372 5373 5374 5372 5370 5366 5362 5360 5365 5372 5378 5387 5397 5409 5412 5411 5408 5408 5414 5407 5404 5399 5396 5388 5371 5372 5382 5378 5370 5383 5391 5404 5404 5398 5393 5385 5378 5372 5367 5363 5359 5354 5351 5351 5349 5347 5345 5343 5343 5341 5331 5312 5308
5370 5375 5373 5369 5366 5362 5359 5356 5357 5360 5372 5383 5391 5395 5405 5409 5408 5405 5408 5411 5403 5397 5393 5390 5375 5373 5383 5378 5384 5399 5396 5410 5408 5401 5396 5390 5384 5380 5375 5368 5363 5359 5354 5350 5349 5347 5345 5342 5342 5341 5339 5335 5324 5320
5371 5371 5366 5362 5357 5352 5349 5352 5357 5363 5372 5386 5389 5393 5397 5404 5405 5406 5409 5408 5399 5397 5397 5390 5394 5385 5375 5387 5403 5410 5406 5403 5398 5394 5393 5389 5383 5378 5372 5368 5364 5359 5355 5351 5348 5344 5342 5341 5342 5341 5337 5330 5324 5320
5366 5361 5358 5356 5353 5348 5348 5347 5354 5370 5382 5387 5390 5394 5397 5399 5400 5402 5404 5401 5395 5396 5394 5388 5384 5394 5399 5405 5406 5407 5406 5400 5395 5390 5387 5386 5382 5376 5372 5368 5363 5359 5355 5351 5346 5342 5339 5336 5331 5332 5328 5323 5319 5315
5354 5351 5350 5349 5345 5344 5349 5350 5354 5372 5377 5383 5386 5391 5395 5394 5398 5398 5397 5396 5390 5384 5384 5391 5399 5403 5406 5405 5404 5405 5404 5400 5392 5385 5384 5382 5381 5379 5375 5368 5365 5361 5357 5351 5347 5329 5331 5325 5320 5316 5312 5309 5307 5304
5343 5344 5337 5336 5335 5337 5351 5353 5366 5376 5384 5378 5384 5385 5391 5389 5389 5392 5393 5394 5387 5386 5391 5404 5405 5403 5402 5400 5398 5396 5393 5392 5392 5388 5383 5381 5380 5380 5377 5372 5366 5362 5357 5352 5345 5337 5320 5322 5314 5307 5302 5300 5296 5293
5343 5336 5329 5326 5332 5335 5347 5357 5372 5373 5374 5379 5380 5381 5385 5378 5378 5386 5389 5389 5390 5398 5400 5402 5409 5407 5404 5400 5398 5394 5391 5388 5385 5384 5373 5372 5373 5371 5369 5367 5363 5359 5355 5349 5341 5333 5324 5319 5313 5307 5300 5292 5288 5288
5330 5325 5323 5322 5330 5338 5353 5359 5359 5366 5368 5373 5375 5374 5380 5381 5384 5387 5386 5396 5399 5401 5403 5407 5410 5410 5408 5404 5401 5398 5395 5392 5389 5386 5382 5378 5376 5373 5369 5366 5360 5356 5353 5348 5343 5334 5324 5315 5307 5303 5296 5290 5285 5278
5324 5319 5324 5330 5339 5349 5349 5355 5361 5369 5375 5378 5374 5374 5385 5383 5383 5382 5398 5412 5414 5411 5413 5414 5412 5413 5411 5408 5406 5402 5398 5394 5391 5387 5382 5377 5373 5371 5369 5366 5362 5358 5352 5346 5342 5332 5321 5312 5303 5297 5288 5282 5277 5273
5320 5312 5320 5336 5346 5347 5350 5354 5361 5361 5361 5374 5376 5379 5382 5377 5374 5387 5410 5421 5418 5417 5422 5419 5415 5414 5412 5411 5409 5405 5399 5397 5393 5389 5382 5376 5372 5368 5368 5365 5361 5358 5351 5344 5337 5327 5319 5310 5300 5293 5286 5280 5276 5271
5324 5321 5337 5358 5358 5357 5364 5357 5359 5363 5368 5368 5379 5384 5379 5370 5371 5390 5419 5426 5423 5415 5410 5413 5415 5415 5413 5411 5407 5404 5401 5396 5391 5389 5386 5381 5373 5369 5364 5362 5357 5353 5349 5344 5335 5323 5316 5308 5299 5292 5287 5281 5274 5269
5327 5337 5354 5369 5375 5376 5371 5372 5369 5369 5364 5368 5378 5377 5367 5361 5379 5416 5422 5424 5423 5423 5422 5418 5416 5416 5415 5412 5407 5403 5398 5395 5391 5386 5381 5379 5374 5369 5367 5360 5357 5354 5346 5340 5334 5322 5315 5308 5300 5293 5287 5281 5276 5269
5338 5356 5366 5372 5370 5373 5370 5372 5367 5369 5376 5386 5383 5372 5381 5391 5418 5421 5421 5427 5425 5419 5419 5419 5416 5412 5409 5407 5405 5398 5392 5385 5375 5372 5369 5370 5369 5365 5363 5359 5353 5346 5343 5336 5327 5319 5313 5308 5302 5295 5287 5281 5276 5269
5340 5369 5360 5357 5358 5357 5367 5377 5386 5390 5392 5393 5389 5389 5403 5415 5415 5414 5410 5409 5408 5407 5402 5399 5396 5394 5395 5391 5390 5387 5383 5378 5371 5364 5361 5360 5357 5357 5358 5352 5346 5341 5335 5328 5320 5315 5311 5306 5301 5295 5287 5280 5275 5268
5348 5361 5360 5352 5353 5366 5386 5390 5388 5387 5390 5394 5393 5394 5399 5401 5397 5402 5398 5397 5397 5392 5389 5386 5387 5384 5384 5381 5380 5375 5373 5372 5372 5370 5367 5364 5364 5360 5353 5347 5341 5334 5328 5323 5317 5311 5304 5301 5296 5291 5285 5278 5271 5267
5351 5346 5351 5354 5353 5369 5369 5363 5359 5363 5368 5369 5373 5377 5388 5384 5380 5388 5390 5391 5387 5381 5378 5377 5378 5378 5378 5378 5376 5373 5370 5368 5367 5366 5364 5362 5358 5353 5349 5343 5339 5334 5326 5320 5314 5307 5302 5298 5295 5290 5286 5280 5273 5269
5330 5335 5346 5350 5351 5335 5342 5346 5347 5350 5349 5353 5360 5358 5357 5356 5369 5383 5390 5377 5372 5372 5375 5377 5376 5380 5381 5381 5379 5378 5377 5374 5368 5366 5363 5359 5354 5348 5343 5338 5333 5329 5324 5318 5312 5306 5301 5297 5294 5290 5288 5283 5278 5272
5302 5313 5324 5322 5322 5327 5327 5334 5337 5340 5338 5342 5348 5353 5353 5359 5364 5381 5385 5381 5380 5382 5379 5376 5379 5383 5382 5379 5375 5371 5369 5369 5368 5367 5365 5359 5353 5346 5340 5335 5330 5325 5320 5316 5310 5305 5300 5296 5293 5291 5287 5284 5280 5275